TimeCDT,TemperatureF,Dew PointF,Humidity,Sea Level PressureIn,VisibilityMPH,Wind Direction,Wind SpeedMPH,Gust SpeedMPH,PrecipitationIn,Events,Conditions,WindDirDegrees,DateUTC
12:15 AM,44.6,39.2,81,30.07,10.0,NE,10.4,-,N/A,,Overcast,50,2013-04-17 05:15:00
12:35 AM,44.6,39.2,81,30.07,10.0,NE,9.2,16.1,0.01,,Overcast,50,2013-04-17 05:35:00
12:55 AM,44.6,39.2,81,30.08,10.0,NE,11.5,-,0.01,,Overcast,50,2013-04-17 05:55:00
1:15 AM,44.6,39.2,81,30.07,10.0,NE,10.4,-,N/A,,Overcast,50,2013-04-17 06:15:00
1:35 AM,44.6,41.0,87,30.07,10.0,NE,8.1,-,N/A,,Overcast,50,2013-04-17 06:35:00
1:55 AM,44.6,41.0,87,30.06,10.0,NE,9.2,-,N/A,,Overcast,50,2013-04-17 06:55:00
2:15 AM,44.6,41.0,87,30.05,10.0,NE,9.2,-,N/A,,Overcast,50,2013-04-17 07:15:00
2:35 AM,46.4,41.0,81,30.04,10.0,ENE,10.4,16.1,N/A,,Overcast,70,2013-04-17 07:35:00
2:55 AM,46.4,41.0,81,30.02,10.0,East,9.2,-,N/A,,Overcast,80,2013-04-17 07:55:00
3:15 AM,46.4,41.0,81,30.01,10.0,ENE,12.7,17.3,N/A,,Overcast,70,2013-04-17 08:15:00
3:35 AM,46.4,41.0,81,30.00,10.0,East,12.7,-,N/A,,Overcast,90,2013-04-17 08:35:00
3:55 AM,46.4,42.8,87,30.00,10.0,East,10.4,18.4,N/A,,Overcast,90,2013-04-17 08:55:00
4:15 AM,46.4,42.8,87,29.99,10.0,East,9.2,-,N/A,,Overcast,100,2013-04-17 09:15:00
4:35 AM,46.4,42.8,87,29.97,10.0,East,11.5,-,N/A,,Overcast,100,2013-04-17 09:35:00
4:55 AM,46.4,42.8,87,29.95,7.0,East,12.7,17.3,N/A,,Overcast,100,2013-04-17 09:55:00
5:15 AM,46.4,42.8,87,29.96,7.0,East,8.1,-,N/A,,Overcast,80,2013-04-17 10:15:00
5:35 AM,46.4,42.8,87,29.96,5.0,East,6.9,-,N/A,,Overcast,80,2013-04-17 10:35:00
5:55 AM,44.6,42.8,93,29.96,4.0,ENE,6.9,-,N/A,,Overcast,70,2013-04-17 10:55:00
6:15 AM,44.6,44.6,100,29.96,2.5,ENE,8.1,-,N/A,,Overcast,70,2013-04-17 11:15:00
6:35 AM,46.4,44.6,93,29.95,1.2,East,10.4,-,N/A,,Overcast,80,2013-04-17 11:35:00
6:55 AM,46.4,44.6,93,29.95,0.5,East,10.4,-,N/A,Fog,Fog,80,2013-04-17 11:55:00
7:15 AM,46.4,44.6,93,29.93,0.5,East,9.2,-,0.01,Fog,Fog,90,2013-04-17 12:15:00
7:35 AM,46.4,44.6,93,29.93,0.5,East,8.1,-,0.01,Fog,Fog,90,2013-04-17 12:35:00
7:55 AM,46.4,44.6,93,29.93,0.5,ESE,6.9,-,0.01,Fog,Fog,110,2013-04-17 12:55:00
8:15 AM,48.2,46.4,93,29.93,0.5,East,8.1,-,N/A,Fog,Fog,100,2013-04-17 13:15:00
8:35 AM,48.2,46.4,93,29.92,0.5,East,8.1,-,N/A,Fog,Fog,100,2013-04-17 13:35:00
8:55 AM,50.0,46.4,87,29.90,0.5,East,6.9,-,N/A,Fog,Fog,90,2013-04-17 13:55:00
9:15 AM,50.0,48.2,94,29.90,1.0,East,3.5,-,N/A,,Overcast,100,2013-04-17 14:15:00
9:35 AM,51.8,50.0,94,29.90,1.5,ENE,3.5,-,N/A,,Overcast,70,2013-04-17 14:35:00
9:55 AM,51.8,50.0,94,29.89,2.5,Calm,Calm,-,N/A,,Overcast,0,2013-04-17 14:55:00
10:15 AM,51.8,51.8,100,29.89,3.0,NNW,3.5,-,N/A,,Overcast,340,2013-04-17 15:15:00
10:35 AM,53.6,51.8,94,29.87,3.0,NE,4.6,-,N/A,Thunderstorm,Overcast,40,2013-04-17 15:35:00
10:55 AM,53.6,53.6,100,29.87,4.0,NE,5.8,-,N/A,Thunderstorm,Overcast,50,2013-04-17 15:55:00
11:15 AM,55.4,53.6,94,29.86,5.0,NE,3.5,-,N/A,Thunderstorm,Overcast,40,2013-04-17 16:15:00
11:35 AM,55.4,53.6,94,29.84,5.0,NE,5.8,-,N/A,Thunderstorm,Overcast,50,2013-04-17 16:35:00
11:55 AM,59.0,55.4,88,29.83,7.0,Calm,Calm,-,N/A,Thunderstorm,Thunderstorm,0,2013-04-17 16:55:00
12:15 PM,60.8,59.0,94,29.82,7.0,NNE,4.6,-,N/A,Thunderstorm,Mostly Cloudy,30,2013-04-17 17:15:00
12:35 PM,60.8,57.2,88,29.82,10.0,NNW,6.9,-,N/A,Thunderstorm,Overcast,340,2013-04-17 17:35:00
12:55 PM,59.0,55.4,88,29.80,7.0,North,5.8,-,N/A,Thunderstorm,Overcast,360,2013-04-17 17:55:00
1:15 PM,59.0,55.4,88,29.80,7.0,NNW,10.4,-,0.01,Thunderstorm,Thunderstorm,340,2013-04-17 18:15:00
1:35 PM,55.4,53.6,94,29.76,5.0,North,12.7,-,0.01,Thunderstorm,Overcast,10,2013-04-17 18:35:00
1:55 PM,55.4,53.6,94,29.76,5.0,NNE,9.2,-,0.01,Thunderstorm,Overcast,30,2013-04-17 18:55:00
2:15 PM,53.6,51.8,94,29.79,5.0,WNW,13.8,17.3,N/A,Thunderstorm,Overcast,290,2013-04-17 19:15:00
2:35 PM,53.6,51.8,94,29.74,4.0,North,8.1,-,N/A,Thunderstorm,Overcast,10,2013-04-17 19:35:00
2:55 PM,53.6,51.8,94,29.75,5.0,NNW,8.1,-,N/A,Rain-Thunderstorm,Light Thunderstorms and Rain,340,2013-04-17 19:55:00
3:35 PM,53.6,51.8,94,29.72,4.0,North,6.9,-,N/A,Rain-Thunderstorm,Light Thunderstorms and Rain,350,2013-04-17 20:35:00
3:55 PM,55.4,53.6,94,29.71,5.0,WNW,3.5,-,N/A,,Mostly Cloudy,290,2013-04-17 20:55:00
4:15 PM,55.4,53.6,94,29.70,7.0,NNW,3.5,-,N/A,,Overcast,340,2013-04-17 21:15:00
4:35 PM,55.4,53.6,94,29.70,10.0,Calm,Calm,-,N/A,,Overcast,0,2013-04-17 21:35:00
4:55 PM,55.4,55.4,100,29.69,10.0,Calm,Calm,-,N/A,Thunderstorm,Overcast,0,2013-04-17 21:55:00
5:35 PM,57.2,55.4,94,29.67,10.0,NNW,6.9,-,N/A,,Overcast,330,2013-04-17 22:35:00
5:55 PM,59.0,55.4,88,29.67,10.0,NNW,5.8,-,N/A,Thunderstorm,Overcast,330,2013-04-17 22:55:00
6:15 PM,59.0,55.4,88,29.67,10.0,North,3.5,-,N/A,,Overcast,360,2013-04-17 23:15:00
6:35 PM,59.0,55.4,88,29.66,10.0,Calm,Calm,-,N/A,,Overcast,0,2013-04-17 23:35:00
6:55 PM,59.0,55.4,88,29.64,5.0,NNE,4.6,-,N/A,,Overcast,20,2013-04-17 23:55:00
7:15 PM,57.2,55.4,94,29.64,5.0,Calm,Calm,-,N/A,Rain-Thunderstorm,Light Thunderstorms and Rain,0,2013-04-18 00:15:00
7:35 PM,55.4,55.4,100,29.63,7.0,NNE,6.9,-,N/A,Thunderstorm,Thunderstorm,30,2013-04-18 00:35:00
7:55 PM,55.4,53.6,94,29.63,7.0,North,5.8,-,N/A,Thunderstorm,Overcast,10,2013-04-18 00:55:00
8:15 PM,55.4,53.6,94,29.64,10.0,NNW,9.2,-,N/A,,Overcast,340,2013-04-18 01:15:00
8:35 PM,55.4,53.6,94,29.65,10.0,NNW,9.2,-,N/A,Thunderstorm,Overcast,330,2013-04-18 01:35:00
8:55 PM,53.6,51.8,94,29.64,10.0,NNE,6.9,-,N/A,Thunderstorm,Thunderstorm,20,2013-04-18 01:55:00
9:15 PM,53.6,51.8,94,29.64,10.0,NNW,9.2,-,N/A,Rain-Thunderstorm,Light Thunderstorms and Rain,340,2013-04-18 02:15:00
9:35 PM,53.6,51.8,94,29.64,10.0,North,5.8,-,N/A,Thunderstorm,Overcast,360,2013-04-18 02:35:00
9:55 PM,53.6,51.8,94,29.65,5.0,NW,6.9,-,N/A,Rain-Thunderstorm,Light Thunderstorms and Rain,310,2013-04-18 02:55:00
10:15 PM,51.8,50.0,94,29.65,7.0,NW,6.9,-,N/A,Rain-Thunderstorm,Thunderstorms and Rain,320,2013-04-18 03:15:00
10:35 PM,51.8,50.0,94,29.69,5.0,NW,11.5,20.7,N/A,Rain-Thunderstorm,Heavy Thunderstorms and Rain,310,2013-04-18 03:35:00
10:55 PM,50.0,46.4,87,29.63,10.0,NNW,10.4,-,N/A,Rain-Thunderstorm,Light Thunderstorms and Rain,330,2013-04-18 03:55:00
11:15 PM,48.2,46.4,93,29.68,10.0,WNW,11.5,-,0.01,Thunderstorm,Unknown,290,2013-04-18 04:15:00
11:35 PM,48.2,46.4,93,29.64,3.0,NNW,10.4,-,0.01,Rain-Thunderstorm,Light Thunderstorms and Rain,330,2013-04-18 04:35:00
11:55 PM,48.2,46.4,93,29.68,10.0,Calm,Calm,-,0.01,Rain-Thunderstorm,Light Thunderstorms and Rain,0,2013-04-18 04:55:00